London-Corbin, KY

4:27 AM EDT on May 27, 2018 (GMT -0400)
London-Corbin / McKee

Weather History for KLOZ - June, 2013

Change the Weather History Date:

Wednesday, June 26, 2013

  Actual Average Record
Temperature  
Mean Temperature 77 °F 75 °F  
Max Temperature 86 °F 86 °F 97 °F (1988)
Min Temperature 68 °F 65 °F 44 °F (1974)
Degree Days  
Heating Degree Days 0 0  
Month to date heating degree days 0 7  
Since 1 June heating degree days 0 7  
Since 1 July heating degree days 4531 4203  
Cooling Degree Days 12 10  
Month to date cooling degree days 198 201  
Year to date cooling degree days 298 315  
Since 1 June cooling degree days 198 201  
Growing Degree Days 28 (Base 50)    
Moisture  
Dew Point 69 °F    
Average Humidity 72    
Maximum Humidity 93    
Minimum Humidity 51    
Precipitation  
Precipitation 0.12 in 0.13 in 1.40 in (1992)
Month to date precipitation 5.76 3.83  
Year to date precipitation 28.77  
Sea Level Pressure  
Sea Level Pressure 29.96 in    
Wind  
Wind Speed 6 mph (SW)    
Max Wind Speed 31 mph    
Max Gust Speed 44 mph    
Visibility 8 miles    
Events Rain , Thunderstorm    
T = Trace of Precipitation, MM = Missing Value Source: NWS Daily Summary

Daily Weather History Graph

Daily Weather History Graph

Search for Another Location

Airport or City:

Astronomy

Jun. 26, 2013 Rise Set
Actual Time 6:18 AM EDT 9:00 PM EDT
Civil Twilight 5:47 AM EDT 9:31 PM EDT
Nautical Twilight 5:08 AM EDT 10:09 PM EDT
Astronomical Twilight 4:25 AM EDT 10:52 PM EDT
Moon 11:29 PM EDT (6/26) 10:03 AM EDT (6/26)
Length of Visible Light 15h 43m
Length of Day
14h 42m
Waning Gibbous, 85% of the Moon is Illuminated
Jun 26
Waning Gibbous
Jun 30
Last Quarter
Jul 8
New
Jul 15
First Quarter
Jul 22
Full

Hourly Weather History & Observations

Time (EDT) Temp. Heat Index Dew Point Humidity Pressure Visibility Wind Dir Wind Speed Gust Speed Precip Events Conditions
12:53 AM 73.0 °F - 69.1 °F 87% 30.00 in 10.0 mi Calm Calm - N/A   Clear
1:53 AM 71.1 °F - 69.1 °F 93% 29.99 in 9.0 mi Calm Calm - N/A   Clear
2:53 AM 71.1 °F - 68.0 °F 90% 29.98 in 10.0 mi Calm Calm - N/A   Clear
3:53 AM 69.1 °F - 66.9 °F 93% 29.99 in 7.0 mi Calm Calm - N/A   Clear
4:53 AM 69.1 °F - 66.9 °F 93% 29.99 in 6.0 mi Calm Calm - N/A   Mostly Cloudy
5:53 AM 69.1 °F - 66.9 °F 93% 30.00 in 6.0 mi Calm Calm - N/A   Partly Cloudy
6:51 AM 69.8 °F - 68.0 °F 94% 30.03 in 1.2 mi Calm Calm - 0.06 in Rain Rain
6:53 AM 69.1 °F - 68.0 °F 96% 30.00 in 1.2 mi Calm Calm - 0.06 in Rain Light Rain
6:56 AM 69.8 °F - 68.0 °F 94% 30.03 in 3.0 mi Calm Calm - 0.00 in Rain Light Rain
7:53 AM 71.1 °F - 69.1 °F 93% 30.00 in 5.0 mi South 4.6 mph - 0.00 in Thunderstorm Mostly Cloudy
8:08 AM 71.6 °F - 69.8 °F 94% 30.05 in 6.0 mi Calm Calm - N/A   Overcast
8:26 AM 71.6 °F - 69.8 °F 94% 30.05 in 6.0 mi Calm Calm - N/A   Overcast
8:41 AM 71.6 °F - 69.8 °F 94% 30.04 in 7.0 mi Calm Calm - N/A   Mostly Cloudy
8:53 AM 72.0 °F - 70.0 °F 93% 30.01 in 7.0 mi Calm Calm - N/A   Partly Cloudy
9:53 AM 75.0 °F - 71.1 °F 87% 30.00 in 10.0 mi West 6.9 mph - N/A   Scattered Clouds
10:40 AM 77.0 °F - 69.8 °F 78% 30.04 in 10.0 mi West 9.2 mph - N/A   Mostly Cloudy
10:53 AM 77.0 °F - 70.0 °F 79% 30.00 in 10.0 mi SW 9.2 mph - N/A   Mostly Cloudy
11:04 AM 77.0 °F - 69.8 °F 78% 30.04 in 10.0 mi WSW 8.1 mph - N/A   Scattered Clouds
11:53 AM 78.1 °F - 70.0 °F 76% 30.00 in 10.0 mi WSW 5.8 mph - N/A   Partly Cloudy
12:53 PM 82.9 °F 87.0 °F 70.0 °F 65% 29.97 in 10.0 mi WSW 11.5 mph - N/A   Partly Cloudy
1:53 PM 84.0 °F 87.0 °F 68.0 °F 58% 29.96 in 10.0 mi West 11.5 mph - N/A Thunderstorm Scattered Clouds
2:07 PM 84.2 °F 87.3 °F 68.0 °F 58% 29.99 in 10.0 mi SW 8.1 mph - N/A   Partly Cloudy
2:53 PM 84.9 °F 88.8 °F 69.1 °F 59% 29.93 in 10.0 mi SW 6.9 mph - N/A   Scattered Clouds
3:53 PM 86.0 °F 88.8 °F 66.9 °F 53% 29.91 in 10.0 mi SSW 10.4 mph 17.3 mph N/A   Clear
4:53 PM 82.9 °F 87.5 °F 71.1 °F 67% 29.88 in 10.0 mi South 8.1 mph - N/A   Clear
5:53 PM 84.9 °F 90.1 °F 71.1 °F 63% 29.86 in 10.0 mi SW 6.9 mph - N/A   Partly Cloudy
6:53 PM 84.9 °F 88.2 °F 68.0 °F 57% 29.85 in 10.0 mi SW 5.8 mph - N/A   Clear
7:53 PM 82.9 °F 86.5 °F 69.1 °F 63% 29.86 in 10.0 mi SSW 3.5 mph - N/A   Scattered Clouds
8:53 PM 80.1 °F 83.6 °F 71.1 °F 74% 29.84 in 10.0 mi South 3.5 mph - N/A   Overcast
9:30 PM 78.8 °F - 71.6 °F 78% 29.86 in 10.0 mi South 5.8 mph - N/A Thunderstorm Mostly Cloudy
9:45 PM 78.8 °F - 71.6 °F 78% 29.86 in 10.0 mi South 9.2 mph - N/A   Scattered Clouds
9:53 PM 79.0 °F - 71.1 °F 77% 29.82 in 10.0 mi South 9.2 mph - N/A   Scattered Clouds
10:53 PM 77.0 °F - 71.1 °F 82% 29.83 in 10.0 mi South 9.2 mph - 0.00 in   Partly Cloudy
11:53 PM 78.1 °F - 70.0 °F 76% 29.82 in 10.0 mi SSW 10.4 mph 17.3 mph N/A   Mostly Cloudy